{"data":{"norad_id":53452,"intl_designator":"2022-098J","name":"DONGPO 02","alt_names":[],"object_type":"PAYLOAD","status":"ACTIVE","operator":null,"country":"PRC","launch_date":"2022-08-10","launch_site_code":"TAISC","launch_vehicle":null,"mission":null,"orbit_class":"UNKNOWN","rcs_meters":null,"size_class":null,"mass_kg":null,"dimensions":null,"purposes":[],"wikipedia_slug":null,"has_3d_model":false,"image_url":null,"decayed_at":null,"tle_current":{"epoch":"2026-05-25T04:52:13.643616Z","epoch_age_seconds":61485,"freshness":"FRESH","line1":"1 53452U 22098J   26145.20293569  .00086359  00000+0  71471-3 0  9997","line2":"2 53452  97.5485 274.4877 0001519  86.7326 273.4109 15.69995610211186","mean_motion":15.6999561,"eccentricity":0.0001519,"inclination_deg":97.5485,"raan_deg":274.4877,"arg_perigee_deg":86.7326,"mean_anomaly_deg":273.4109,"bstar":0.00071471,"rev_number":21118,"period_min":91.720001688412,"perigee_km":357.88621045643,"apogee_km":359.93292520374,"semimajor_km":6737.0465678301,"source":"CELESTRAK","updated_at":"2026-05-25T13:37:58.193117Z"}}}